ADR2V LOWW-LJLJ

Flight info

Callsign ADR2V
Flight time 0h 40m
Altitude 28000
Route RUPET DCT GRZ DCT RADLY
Aircraft A319/M-SDE3FGHIRWY/LB1

Departure

Time 2026-04-22 08:21
Airport Vienna International Airport (LOWW)

Arrival

Time 2026-04-22 09:01
Airport Ljubljana Jože Pučnik Airport (LJLJ)
Time Latitude Longitude Altitude Speed Heading
2026-04-22 07:23 48.11882 16.56824 610 ft 0 kts 206°
2026-04-22 08:12 48.11893 16.56832 623 ft 3 kts 203°
2026-04-22 08:12 48.11912 16.56843 615 ft 3 kts 194°
2026-04-22 08:12 48.11932 16.56848 613 ft 3 kts 177°
2026-04-22 08:13 48.11949 16.56843 614 ft 3 kts 139°
2026-04-22 08:13 48.11957 16.56829 625 ft 1 kts 115°
2026-04-22 08:13 48.11958 16.56827 625 ft 0 kts 115°
2026-04-22 08:15 48.11949 16.56855 614 ft 5 kts 115°
2026-04-22 08:15 48.11927 16.56925 619 ft 9 kts 115°
2026-04-22 08:16 48.11900 16.57011 613 ft 9 kts 114°
2026-04-22 08:16 48.11867 16.57106 616 ft 12 kts 112°
2026-04-22 08:16 48.11849 16.57232 610 ft 8 kts 111°
2026-04-22 08:16 48.11820 16.57318 610 ft 11 kts 117°
2026-04-22 08:17 48.11747 16.57372 614 ft 14 kts 166°
2026-04-22 08:17 48.11646 16.57414 611 ft 17 kts 163°
2026-04-22 08:17 48.11527 16.57465 619 ft 16 kts 169°
2026-04-22 08:17 48.11437 16.57422 618 ft 15 kts 206°
2026-04-22 08:18 48.11352 16.57359 609 ft 4 kts 205°
2026-04-22 08:18 48.11350 16.57358 609 ft 0 kts 205°
2026-04-22 08:18 48.11349 16.57357 609 ft 1 kts 205°
2026-04-22 08:18 48.11327 16.57342 616 ft 6 kts 205°
2026-04-22 08:19 48.11280 16.57309 618 ft 9 kts 205°
2026-04-22 08:19 48.11212 16.57261 616 ft 13 kts 206°
2026-04-22 08:19 48.11122 16.57194 616 ft 16 kts 207°
2026-04-22 08:19 48.11052 16.57140 613 ft 4 kts 211°
2026-04-22 08:20 48.11060 16.57085 615 ft 11 kts 300°
2026-04-22 08:20 48.11138 16.56847 613 ft 55 kts 296°
2026-04-22 08:20 48.11420 16.55988 614 ft 126 kts 296°
2026-04-22 08:20 48.11879 16.54611 1002 ft 152 kts 300°
2026-04-22 08:21 48.12108 16.53052 1816 ft 165 kts 267°
2026-04-22 08:21 48.11505 16.51428 2302 ft 201 kts 225°
2026-04-22 08:21 48.10316 16.50080 2809 ft 231 kts 219°
2026-04-22 08:21 48.08949 16.48598 3572 ft 254 kts 218°
2026-04-22 08:22 48.07457 16.46947 4452 ft 272 kts 219°
2026-04-22 08:22 48.05934 16.45146 5572 ft 284 kts 221°
2026-04-22 08:22 48.04452 16.43203 6793 ft 285 kts 223°
2026-04-22 08:22 48.02970 16.41208 8051 ft 288 kts 223°
2026-04-22 08:23 48.01482 16.39201 9177 ft 294 kts 223°
2026-04-22 08:23 47.99936 16.37134 10269 ft 304 kts 221°
2026-04-22 08:23 47.98285 16.34941 10789 ft 329 kts 222°
2026-04-22 08:23 47.96699 16.32344 11405 ft 345 kts 234°
2026-04-22 08:24 47.95436 16.29256 12299 ft 351 kts 245°
2026-04-22 08:24 47.94526 16.25845 13217 ft 356 kts 252°
2026-04-22 08:24 47.93670 16.22339 14132 ft 362 kts 252°
2026-04-22 08:24 47.92811 16.18827 14949 ft 367 kts 251°
2026-04-22 08:25 47.91925 16.15228 15786 ft 371 kts 251°
2026-04-22 08:25 47.91024 16.11592 16645 ft 375 kts 251°
2026-04-22 08:25 47.90112 16.07916 17499 ft 380 kts 251°
2026-04-22 08:25 47.89183 16.04205 18357 ft 384 kts 250°
2026-04-22 08:26 47.87931 16.00650 19094 ft 391 kts 237°
2026-04-22 08:26 47.86221 15.97545 19829 ft 395 kts 225°
2026-04-22 08:26 47.84073 15.94957 20606 ft 399 kts 212°
2026-04-22 08:26 47.81589 15.93048 21351 ft 402 kts 200°
2026-04-22 08:27 47.78952 15.91549 22089 ft 406 kts 200°
2026-04-22 08:27 47.76335 15.90067 22814 ft 409 kts 200°
2026-04-22 08:27 47.73649 15.88546 23531 ft 413 kts 200°
2026-04-22 08:27 47.70937 15.87012 24146 ft 417 kts 200°
2026-04-22 08:28 47.68245 15.85489 24706 ft 421 kts 200°
2026-04-22 08:28 47.65496 15.83932 25285 ft 424 kts 200°
2026-04-22 08:28 47.62724 15.82362 25842 ft 428 kts 200°
2026-04-22 08:28 47.59919 15.80776 26397 ft 431 kts 200°
2026-04-22 08:29 47.57091 15.79181 26979 ft 435 kts 200°
2026-04-22 08:29 47.54288 15.77603 27516 ft 438 kts 200°
2026-04-22 08:29 47.51410 15.75988 27995 ft 443 kts 200°
2026-04-22 08:29 47.48512 15.74366 28210 ft 444 kts 200°
2026-04-22 08:30 47.45663 15.72772 28230 ft 432 kts 200°
2026-04-22 08:30 47.42864 15.71205 28212 ft 428 kts 200°
2026-04-22 08:30 47.37336 15.68105 28222 ft 428 kts 200°
2026-04-22 08:31 47.31776 15.65005 28212 ft 425 kts 200°
2026-04-22 08:32 47.23462 15.60373 28219 ft 425 kts 200°
2026-04-22 08:32 47.17923 15.57292 28220 ft 425 kts 200°
2026-04-22 08:33 47.12418 15.54249 28204 ft 425 kts 200°
2026-04-22 08:33 47.06861 15.51191 28238 ft 428 kts 200°
2026-04-22 08:33 47.04032 15.49628 28249 ft 439 kts 200°
2026-04-22 08:34 47.01157 15.48042 28243 ft 442 kts 200°
2026-04-22 08:34 46.95423 15.44805 28241 ft 444 kts 205°
2026-04-22 08:35 46.89937 15.40559 28246 ft 445 kts 209°
2026-04-22 08:35 46.84491 15.36308 28241 ft 445 kts 208°
2026-04-22 08:36 46.79016 15.32046 28231 ft 445 kts 208°
2026-04-22 08:36 46.73570 15.27810 28219 ft 445 kts 209°
2026-04-22 08:37 46.68109 15.23576 28212 ft 446 kts 209°
2026-04-22 08:37 46.62546 15.19607 28206 ft 446 kts 203°
2026-04-22 08:38 46.56814 15.16108 28197 ft 446 kts 204°
2026-04-22 08:38 46.51069 15.12611 28197 ft 446 kts 204°
2026-04-22 08:39 46.45366 15.09148 28200 ft 447 kts 204°
2026-04-22 08:39 46.39625 15.05660 28201 ft 447 kts 204°
2026-04-22 08:40 46.33879 15.02190 28199 ft 447 kts 204°
2026-04-22 08:40 46.28486 14.97849 28202 ft 443 kts 217°
2026-04-22 08:41 46.23463 14.92754 28201 ft 443 kts 217°
2026-04-22 08:41 46.18430 14.87660 28129 ft 431 kts 218°
2026-04-22 08:41 46.16034 14.85249 27988 ft 417 kts 218°
2026-04-22 08:42 46.13683 14.82884 27791 ft 406 kts 218°
2026-04-22 08:42 46.11389 14.80579 27655 ft 395 kts 218°
2026-04-22 08:42 46.09172 14.78353 27509 ft 379 kts 218°
2026-04-22 08:42 46.07074 14.76250 27226 ft 364 kts 218°
2026-04-22 08:43 46.05013 14.74184 26696 ft 358 kts 218°
2026-04-22 08:43 46.02974 14.72142 26106 ft 354 kts 218°
2026-04-22 08:43 46.00962 14.70126 25489 ft 350 kts 218°
2026-04-22 08:43 45.98908 14.68248 24904 ft 348 kts 207°
2026-04-22 08:44 45.96600 14.67263 24342 ft 347 kts 187°
2026-04-22 08:44 45.94227 14.67381 23781 ft 344 kts 166°
2026-04-22 08:44 45.92013 14.68567 23122 ft 337 kts 147°
2026-04-22 08:44 45.90191 14.70616 22466 ft 330 kts 131°
2026-04-22 08:45 45.88626 14.73009 21814 ft 326 kts 127°
2026-04-22 08:45 45.87485 14.75748 21245 ft 315 kts 106°
2026-04-22 08:45 45.87004 14.78765 20667 ft 307 kts 90°
2026-04-22 08:45 45.87079 14.81779 20102 ft 299 kts 76°
2026-04-22 08:46 45.87658 14.84561 19548 ft 292 kts 61°
2026-04-22 08:46 45.88715 14.87034 18989 ft 285 kts 46°
2026-04-22 08:46 45.90121 14.88952 18451 ft 279 kts 32°
2026-04-22 08:46 45.91808 14.90278 17846 ft 275 kts 19°
2026-04-22 08:47 45.93646 14.90936 17244 ft 271 kts
2026-04-22 08:47 45.95515 14.90922 16685 ft 269 kts 352°
2026-04-22 08:47 45.97318 14.90249 16109 ft 268 kts 338°
2026-04-22 08:47 45.98946 14.88962 15562 ft 267 kts 325°
2026-04-22 08:48 46.00328 14.87203 15005 ft 269 kts 317°
2026-04-22 08:48 46.01591 14.85206 14469 ft 269 kts 313°
2026-04-22 08:48 46.02793 14.83133 13960 ft 268 kts 312°
2026-04-22 08:48 46.03963 14.81057 13379 ft 266 kts 312°
2026-04-22 08:49 46.05127 14.78995 12841 ft 264 kts 312°
2026-04-22 08:49 46.06272 14.76985 12338 ft 262 kts 313°
2026-04-22 08:49 46.07339 14.74872 11816 ft 263 kts 298°
2026-04-22 08:49 46.07742 14.72308 11329 ft 267 kts 271°
2026-04-22 08:50 46.07277 14.69713 10840 ft 271 kts 243°
2026-04-22 08:50 46.06018 14.67707 10300 ft 274 kts 214°
2026-04-22 08:50 46.04255 14.66799 9850 ft 275 kts 184°
2026-04-22 08:50 46.02394 14.67173 9497 ft 269 kts 154°
2026-04-22 08:51 46.00904 14.68683 9180 ft 261 kts 129°
2026-04-22 08:51 45.99705 14.70640 8837 ft 260 kts 125°
2026-04-22 08:51 45.98543 14.72630 8548 ft 259 kts 126°
2026-04-22 08:51 45.97395 14.74619 8236 ft 257 kts 126°
2026-04-22 08:52 45.96274 14.76563 7942 ft 254 kts 124°
2026-04-22 08:52 45.95438 14.78737 7618 ft 246 kts 102°
2026-04-22 08:52 45.95323 14.81142 7364 ft 237 kts 78°
2026-04-22 08:52 45.95882 14.83287 7241 ft 225 kts 54°
2026-04-22 08:53 45.96927 14.84885 7110 ft 216 kts 35°
2026-04-22 08:53 45.98249 14.85822 6977 ft 209 kts 18°
2026-04-22 08:53 45.99652 14.86055 6853 ft 204 kts 358°
2026-04-22 08:53 46.01018 14.85623 6726 ft 200 kts 341°
2026-04-22 08:54 46.02205 14.84599 6582 ft 199 kts 323°
2026-04-22 08:54 46.03123 14.83095 6345 ft 200 kts 310°
2026-04-22 08:54 46.03958 14.81485 6094 ft 200 kts 311°
2026-04-22 08:54 46.04514 14.80416 6025 ft 201 kts 311°
2026-04-22 08:55 46.05627 14.78272 6004 ft 202 kts 311°
2026-04-22 08:55 46.06469 14.76647 6001 ft 203 kts 312°
2026-04-22 08:55 46.07031 14.75561 5970 ft 204 kts 312°
2026-04-22 08:55 46.07882 14.73916 5764 ft 204 kts 312°
2026-04-22 08:56 46.08734 14.72268 5506 ft 205 kts 311°
2026-04-22 08:56 46.09584 14.70621 5224 ft 202 kts 312°
2026-04-22 08:56 46.10417 14.69009 4952 ft 198 kts 311°
2026-04-22 08:56 46.11232 14.67428 4680 ft 195 kts 311°
2026-04-22 08:57 46.12031 14.65880 4413 ft 194 kts 312°
2026-04-22 08:57 46.12830 14.64330 4140 ft 190 kts 311°
2026-04-22 08:57 46.13609 14.62818 3887 ft 186 kts 312°
2026-04-22 08:57 46.14374 14.61333 3634 ft 184 kts 311°
2026-04-22 08:58 46.15133 14.59858 3419 ft 180 kts 311°
2026-04-22 08:58 46.15853 14.58456 3151 ft 165 kts 311°
2026-04-22 08:58 46.16485 14.57222 2936 ft 142 kts 312°
2026-04-22 08:58 46.17049 14.56126 2746 ft 132 kts 313°
2026-04-22 08:59 46.17586 14.55082 2567 ft 127 kts 313°
2026-04-22 08:59 46.18112 14.54062 2396 ft 126 kts 314°
2026-04-22 08:59 46.18634 14.53046 2219 ft 126 kts 314°
2026-04-22 08:59 46.19153 14.52034 1998 ft 125 kts 310°
2026-04-22 09:00 46.19659 14.51047 1863 ft 123 kts 309°
2026-04-22 09:00 46.20168 14.50050 1687 ft 122 kts 308°
2026-04-22 09:00 46.20678 14.49079 1507 ft 120 kts 306°
2026-04-22 09:00 46.21156 14.48100 1342 ft 118 kts 306°
2026-04-22 09:01 46.21649 14.47167 1221 ft 111 kts 307°
2026-04-22 09:01 46.22029 14.46426 1241 ft 68 kts 306°
2026-04-22 09:01 46.22278 14.45937 1247 ft 59 kts 306°
2026-04-22 09:01 46.22468 14.45577 1255 ft 31 kts 309°
2026-04-22 09:02 46.22591 14.45416 1260 ft 24 kts 326°
2026-04-22 09:02 46.22752 14.45328 1258 ft 18 kts 351°
2026-04-22 09:02 46.22831 14.45313 1262 ft 7 kts 352°
2026-04-22 09:02 46.22875 14.45347 1261 ft 10 kts 35°
2026-04-22 09:03 46.22939 14.45404 1259 ft 10 kts 11°
2026-04-22 09:03 46.22985 14.45373 1259 ft 6 kts 19°
2026-04-22 09:03 46.23009 14.45401 1260 ft 3 kts 37°
2026-04-22 09:03 46.23021 14.45412 1262 ft 2 kts 35°
2026-04-22 09:04 46.23027 14.45419 1258 ft 1 kts 36°
2026-04-22 09:04 46.23029 14.45421 1258 ft 0 kts 36°